Regional Weather Roundup
Issued by NWS

Home | Current Version | Previous Version | Text Only | Print | Product List | Glossary On
Versions: 1 2 3 4 5 6 7 8 9 10 11 12 13 14 15 16 17 18 19 20 21 22 23 24 25 26 27 28 29 30 31 32 33 34 35 36 37 38 39 40 41 42 43 44 45 46 47 48 49 50
000
ASUS42 KKEY 201210
RWRKEY

FLORIDA REGIONAL WEATHER ROUNDUP FOR THE FLORIDA KEYS
NATIONAL WEATHER SERVICE KEY WEST FLORIDA
800 AM EDT SAT SEP 20 2014

...SOUTH FLORIDA AND THE KEYS...

CITY           SKY/WX    TMP DP  RH WIND       PRES   REMARKS
FORT MYERS     CLOUDY    75  74  96 CALM      29.91R
SW REGIONAL AP CLOUDY    75  61  61 SW3       29.92R
NAPLES         CLOUDY    77  75  93 SE5       29.91R
MIAMI          PTSUNNY   78  75  90 SW3       29.93R
WEST KENDALL   PTSUNNY   77  74  90 CALM      29.93R
HOMESTEAD      PTSUNNY   75  73  94 CALM      29.93R
MARATHON       MOSUNNY   82  75  79 SE6       29.92S
BOCA CHICA NAS CLOUDY    82  77  84 S10       29.92R HX  90
KEY WEST INTL  CLOUDY    83  75  77 S9        29.92R HX  90

...INTERNATIONAL WEATHER...

CITY           SKY/WX    TMP DP  RH WIND       PRES   REMARKS
NASSAU BAHAMAS PTSUNNY   81  79  94 CALM      29.95S
CANCUN MEXICO  PTCLDY    82  77  83 SE14      29.89R HX  91
COZUMEL MEXICO MOCLDY    73  73 100 SE5       29.90R

ADJACENT COASTAL WATERS...

STATION/POSITION TIME  SKY/WX   TEMP    WIND        PRES    WAVE
                                AIR SEA DIR/SP/G            HT/PER
                 (UTC)          (F)     (DEG/KT/KT) (MB)    (FT/S)
PULASKI SHOAL LI 1200            83     170/  7/  9 1012.9R
SAND KEY         1136            83     170/ 12/ 15 1013.1R
SOMBRERO KEY     1200            83     170/ 11/ 12 1014.0R
LONG KEY         1100            81 84   60/  4/  4 1013.9R
MOLASSES REEF    1200            83 85  190/ 10/ 11 1013.4R
FOWEY ROCKS      1200            82 85  240/  6/  7 1013.7R
Buoy 42080       NOT AVBL

$$


USA.gov is the U.S. government's official web portal to all federal, state and local government web resources and services.